Location: Im Fang
(46.6019°N, 7.2397°E)
Time: 00:50:23
(UTC+00:00)

CZ-4B R/B - Pass Details

Date: 08 December 2019
Orbit: 809 x 881 km, 99.1° (Epoch: 17 January)

Event Time Altitude Azimuth Distance (km) Brightness Sun altitude
Rises 05:51:10 0° 10° (N) 3,438 6.3 -11.6°
Reaches altitude 10° 05:53:34 10° 6° (N) 2,508 5.5 -11.3°
Maximum altitude 05:58:58 53° 292° (WNW) 1,068 3.4 -10.4°
Drops below altitude 10° 06:04:24 10° 217° (SW) 2,526 5.5 -9.5°
Sets 06:06:51 0° 212° (SSW) 3,465 6.3 -9.1°
